Location: Tom
(33.0437°N, 96.9452°W)
Time: 07:53:59
(UTC-06:00)

Envisat - Pass Details

Date: 01 February 2019
Orbit: 764 x 766 km, 98.2° (Epoch: 18 February)

Event Time Altitude Azimuth Distance (km) Brightness Sun altitude
Rises 06:44:39 0° 36° (NE) 3,232 6.5 -8.6°
Reaches altitude 10° 06:48:01 10° 59° (ENE) 2,301 6.2 -7.9°
Maximum altitude 06:50:49 15° 93° (E) 1,983 6.6 -7.3°
Drops below altitude 10° 06:53:36 10° 127° (SE) 2,293 6.8 -6.7°
Sets 06:56:56 0° 150° (SSE) 3,214 7.0 -6.1°
